Tracking 22881 objects as of 19-Apr-2021
HD Live streaming from Space Station
objects crossing your sky now

SL-8 DEB

Track SL-8 DEB now!
10-day predictions


NORAD ID: 20434
Int'l Code: 1990-004C
Perigee: 743.9 km
Apogee: 767.3 km
Inclination: 74.0 °
Period: 99.8 minutes
Semi major axis: 7126 km
RCS: 0.0078 m2 (small)
Launch date: January 18, 1990
Source: Commonwealth of Independent States (former USSR) (CIS)
Launch site: PLESETSK MISSILE AND SPACE COMPLEX (PKMTR)

Note: This is SATELLITE DEBRIS
aabbcc
Your satellite tracking list
Your tracking list is empty




NASA's NSSDC Master Catalog

Two Line Element Set (TLE):
1 20434U 90004C   21109.54981550  .00000272  00000-0  88872-4 0  9994
2 20434  74.0425 268.2706 0016395 285.0344 142.4125 14.43051563637791
Source of the keplerian elements: AFSPC